Weather History for Sterling Muni, Sterling, CO, CO

Change the Weather History Date:

Thursday, February 6, 2014

  Actual Average Record
Temperature  
Mean Temperature -6 °F -  
Max Temperature 1 °F 39 °F 1 °F (2014)
Min Temperature -14 °F 12 °F -14 °F (2014)
Degree Days  
Heating Degree Days 72    
Moisture  
Dew Point -13 °F    
Average Humidity 77    
Maximum Humidity 85    
Minimum Humidity 61    
Precipitation  
Precipitation 0.00 in - - ()
Sea Level Pressure  
Sea Level Pressure 30.16 in    
Wind  
Wind Speed 4 mph (SW)    
Max Wind Speed 14 mph    
Max Gust Speed -    
Visibility 10 miles    
Events Snow    
Averages and records for this station are not official NWS values.
T = Trace of Precipitation, MM = Missing Value Source: NWS Daily Summary

Daily Weather History Graph

Daily Weather History Graph

Search for Another Location

Airport:

Trip Planner

Search our weather history database for the weather conditions in past years. The results will help you decide how hot, cold, wet, or windy it might be!

Date:

Astronomy

Feb. 06, 2014 Rise Set
Actual Time 6:57 AM MST 5:17 PM MST
Civil Twilight 6:29 AM MST 5:45 PM MST
Nautical Twilight 5:56 AM MST 6:18 PM MST
Astronomical Twilight 5:24 AM MST 6:50 PM MST
Moon 10:50 AM MST (2/6) 12:15 AM MST (2/6)
Length of Visible Light 11h 16m
Length of Day
10h 19m
Waxing Crescent, 50% of the Moon is Illuminated
Feb 6
Waxing Crescent
Feb 6
First Quarter
Feb 14
Full
Feb 22
Last Quarter
Mar 1
New

Hourly Weather History & Observations

Time (MST) Temp. Windchill Dew Point Humidity Pressure Visibility Wind Dir Wind Speed Gust Speed Precip Events Conditions
12:10 AM -14.8 °F - -20.2 °F 77% 30.34 in 10.0 mi Calm Calm - N/A   Overcast
12:30 AM -14.8 °F -27.2 °F -18.4 °F 84% 30.33 in 7.0 mi NNE 4.6 mph - N/A   Overcast
12:50 AM -13.0 °F - -18.4 °F 77% 30.32 in 10.0 mi Calm Calm - N/A   Overcast
1:10 AM -14.8 °F -24.8 °F -18.4 °F 84% 30.31 in 10.0 mi North 3.5 mph - N/A   Overcast
1:30 AM -14.8 °F -27.2 °F -18.4 °F 84% 30.31 in 7.0 mi North 4.6 mph - N/A   Overcast
1:50 AM -14.8 °F - -18.4 °F 84% 30.31 in 10.0 mi Calm Calm - N/A   Overcast
2:10 AM -14.8 °F - -18.4 °F 84% 30.30 in 10.0 mi Calm Calm - N/A   Overcast
2:30 AM -14.8 °F - -18.4 °F 84% 30.30 in 10.0 mi Calm Calm - N/A Snow Light Snow
2:50 AM -13.0 °F -22.7 °F -18.4 °F 77% 30.30 in 10.0 mi NNE 3.5 mph - N/A   Overcast
3:10 AM -13.0 °F -28.6 °F -16.6 °F 84% 30.29 in 10.0 mi NE 6.9 mph - N/A   Overcast
3:30 AM -13.0 °F -28.6 °F -16.6 °F 84% 30.28 in 10.0 mi NE 6.9 mph - N/A   Mostly Cloudy
3:50 AM -13.0 °F -28.6 °F -18.4 °F 77% 30.28 in 10.0 mi NE 6.9 mph - N/A   Scattered Clouds
4:10 AM -13.0 °F -28.6 °F -16.6 °F 84% 30.27 in 10.0 mi NE 6.9 mph - N/A   Clear
4:30 AM -13.0 °F -27.0 °F -16.6 °F 84% 30.27 in 10.0 mi NE 5.8 mph - N/A   Mostly Cloudy
4:50 AM -13.0 °F -22.7 °F -16.6 °F 84% 30.27 in 7.0 mi North 3.5 mph - N/A   Overcast
5:10 AM -11.2 °F -23.0 °F -14.8 °F 84% 30.27 in 10.0 mi NNE 4.6 mph - N/A   Overcast
5:30 AM -9.4 °F -20.9 °F -14.8 °F 77% 30.27 in 10.0 mi NE 4.6 mph - N/A   Overcast
5:50 AM -9.4 °F - -14.8 °F 77% 30.27 in 10.0 mi Calm Calm - N/A   Overcast
6:10 AM -9.4 °F -22.7 °F -14.8 °F 77% 30.26 in 10.0 mi NE 5.8 mph - N/A   Overcast
6:30 AM -9.4 °F -22.7 °F -14.8 °F 77% 30.26 in 7.0 mi NNE 5.8 mph - N/A   Overcast
6:50 AM -9.4 °F -22.7 °F -13.0 °F 84% 30.25 in 10.0 mi NE 5.8 mph - N/A Snow Light Snow
7:10 AM -7.6 °F -16.5 °F -13.0 °F 77% 30.26 in 10.0 mi NNE 3.5 mph - N/A   Overcast
7:30 AM -7.6 °F -18.8 °F -13.0 °F 77% 30.25 in 10.0 mi NNE 4.6 mph - N/A   Overcast
7:50 AM -7.6 °F -18.8 °F -11.2 °F 84% 30.25 in 10.0 mi NNE 4.6 mph - N/A   Overcast
8:10 AM -5.8 °F -16.7 °F -11.2 °F 77% 30.26 in 7.0 mi NNE 4.6 mph - N/A   Overcast
8:30 AM -5.8 °F -14.5 °F -9.4 °F 84% 30.25 in 7.0 mi NE 3.5 mph - N/A   Overcast
8:50 AM -5.8 °F -14.5 °F -9.4 °F 84% 30.24 in 10.0 mi ENE 3.5 mph - N/A   Overcast
9:10 AM -5.8 °F -16.7 °F -9.4 °F 84% 30.23 in 10.0 mi ENE 4.6 mph - N/A   Overcast
9:30 AM -4.0 °F -14.6 °F -7.6 °F 85% 30.23 in 10.0 mi NE 4.6 mph - N/A   Mostly Cloudy
9:50 AM -2.2 °F -12.5 °F -5.8 °F 85% 30.21 in 7.0 mi SE 4.6 mph - N/A   Mostly Cloudy
10:10 AM -0.4 °F -13.4 °F -5.8 °F 78% 30.21 in 10.0 mi South 6.9 mph - N/A   Mostly Cloudy
10:30 AM -2.2 °F -21.5 °F -7.6 °F 78% 30.21 in 10.0 mi SSW 13.8 mph - N/A   Mostly Cloudy
10:50 AM -2.2 °F -18.0 °F -9.4 °F 71% 30.21 in 10.0 mi SSW 9.2 mph - N/A   Mostly Cloudy
11:10 AM -4.0 °F -21.2 °F -11.2 °F 71% 30.19 in 10.0 mi SSW 10.4 mph - N/A   Mostly Cloudy
11:30 AM -2.2 °F -18.9 °F -9.4 °F 71% 30.18 in 10.0 mi SSW 10.4 mph - N/A   Mostly Cloudy
11:50 AM -0.4 °F -16.7 °F -9.4 °F 66% 30.16 in 10.0 mi South 10.4 mph - N/A   Mostly Cloudy
12:10 PM -2.2 °F -18.0 °F -9.4 °F 71% 30.15 in 10.0 mi SW 9.2 mph - N/A   Mostly Cloudy
12:30 PM -0.4 °F -14.7 °F -9.4 °F 66% 30.14 in 10.0 mi SW 8.1 mph - N/A   Mostly Cloudy
12:50 PM -0.4 °F -15.7 °F -9.4 °F 66% 30.13 in 10.0 mi SW 9.2 mph - N/A   Mostly Cloudy
1:10 PM -0.4 °F -14.7 °F -9.4 °F 66% 30.13 in 10.0 mi SW 8.1 mph - N/A   Scattered Clouds
1:30 PM -0.4 °F -13.4 °F -9.4 °F 66% 30.11 in 10.0 mi SW 6.9 mph - N/A   Clear
1:50 PM -0.4 °F -12.0 °F -9.4 °F 66% 30.10 in 10.0 mi SW 5.8 mph - N/A   Clear
2:10 PM -0.4 °F -12.0 °F -7.6 °F 72% 30.10 in 10.0 mi SW 5.8 mph - N/A   Clear
2:30 PM 1.4 °F -11.3 °F -9.4 °F 61% 30.09 in 10.0 mi SW 6.9 mph - N/A   Clear
2:50 PM 1.4 °F -11.3 °F -9.4 °F 61% 30.09 in 10.0 mi SW 6.9 mph - N/A   Clear
3:10 PM 1.4 °F -9.9 °F -7.6 °F 66% 30.08 in 10.0 mi SSW 5.8 mph - N/A   Clear
3:30 PM 1.4 °F -8.3 °F -7.6 °F 66% 30.08 in 10.0 mi SW 4.6 mph - N/A   Clear
3:50 PM 1.4 °F -8.3 °F -7.6 °F 66% 30.08 in 10.0 mi South 4.6 mph - N/A   Clear
4:10 PM -0.4 °F -10.4 °F -7.6 °F 72% 30.07 in 10.0 mi SSW 4.6 mph - N/A   Clear
4:30 PM -0.4 °F -8.3 °F -7.6 °F 72% 30.07 in 10.0 mi SSW 3.5 mph - N/A   Clear
4:50 PM -0.4 °F - -7.6 °F 72% 30.06 in 10.0 mi Calm Calm - N/A   Clear
5:10 PM -2.2 °F -12.5 °F -9.4 °F 71% 30.08 in 10.0 mi WSW 4.6 mph - N/A   Clear
5:30 PM -5.8 °F -16.7 °F -13.0 °F 71% 30.07 in 10.0 mi WSW 4.6 mph - N/A   Clear
5:50 PM -7.6 °F -20.6 °F -13.0 °F 77% 30.05 in 10.0 mi SW 5.8 mph - N/A   Scattered Clouds
6:10 PM -7.6 °F -16.5 °F -13.0 °F 77% 30.07 in 10.0 mi West 3.5 mph - N/A   Scattered Clouds
6:30 PM -7.6 °F -18.8 °F -13.0 °F 77% 30.07 in 10.0 mi West 4.6 mph - N/A   Clear
6:50 PM -7.6 °F -20.6 °F -13.0 °F 77% 30.05 in 10.0 mi WSW 5.8 mph - N/A   Clear
7:10 PM -9.4 °F -18.6 °F -14.8 °F 77% 30.05 in 10.0 mi West 3.5 mph - N/A   Clear
7:30 PM -9.4 °F - -14.8 °F 77% 30.05 in 10.0 mi Calm Calm - N/A   Clear
7:50 PM -7.6 °F - -13.0 °F 77% 30.04 in 10.0 mi Calm Calm - N/A   Clear
8:10 PM -9.4 °F - -14.8 °F 77% 30.04 in 10.0 mi Calm Calm - N/A   Clear
8:30 PM -11.2 °F - -16.6 °F 77% 30.04 in 10.0 mi Calm Calm - N/A   Clear
8:50 PM -11.2 °F - -14.8 °F 84% 30.04 in 10.0 mi Calm Calm - N/A   Clear
9:10 PM -11.2 °F - -14.8 °F 84% 30.03 in 10.0 mi Calm Calm - N/A   Clear
9:30 PM -11.2 °F - -14.8 °F 84% 30.02 in 10.0 mi Calm Calm - N/A   Scattered Clouds
9:50 PM -11.2 °F - -14.8 °F 84% 30.01 in 10.0 mi Calm Calm - N/A   Overcast
10:10 PM -9.4 °F - -14.8 °F 77% 30.01 in 10.0 mi Calm Calm - N/A   Overcast
10:30 PM -11.2 °F -20.6 °F -16.6 °F 77% 30.00 in 10.0 mi SW 3.5 mph - N/A   Scattered Clouds
10:50 PM -13.0 °F - -16.6 °F 84% 30.00 in 10.0 mi Calm Calm - N/A   Scattered Clouds
11:10 PM -13.0 °F - -16.6 °F 84% 30.00 in 10.0 mi Calm Calm - N/A   Scattered Clouds
11:30 PM -14.8 °F -24.8 °F -18.4 °F 84% 29.99 in 10.0 mi South 3.5 mph - N/A   Clear
11:50 PM -14.8 °F - -18.4 °F 84% 29.98 in 10.0 mi Calm Calm - N/A   Clear